STARLINK A (44235 NORAD) Tracking and Keplerian Element Data

This shows tracking and keplerian element data for the satellite.

Feedback or suggestion? Click here.




ElementValue
Catalog44235
NameSTARLINK A
Epoch Orbit579
Epoch Day174.0495296
Epoch Year2019
RAAN37.8172
Inclination53.0004
Eccentricity0.0001888
Argument of Perigee118.6502
Mean Anonmoly241.4676
Mean Motion15.04786934
Decay Rate-0.00116833
L11 44235U 19029A 19174.04952960 -.00116833 00000-0 -83074-2 0 9994
L22 44235 53.0004 37.8172 0001888 118.6502 241.4676 15.04786934 5796

Live tracking and technical data element details for STARLINK A (NORAD 44235). STARLINK A can be tracked NOW for your location showing map with azimuth and elevation plus other details from your city location.

Track the satellite on the map from your city or location and see movement details for azimuth, elevation, latitude, longitude, range, height, and movement on the map or in text.







IsCatalogInMostPopularTable: catalog: 44235, numindb: 250
Update: records affected: 1



GetName: 44235 STARLINK A

Hit Count: updated at: Wed, 17 Jul 2019 08:18:19 GMT